sat.trackr.live / text

‹ back to catalog

STARLINK-11403 [DTC]

NORAD 63060 · 2025-035J

PAYLOAD ACTIVE UNKNOWN

§ Identity

Operator
Country
US
Launch date
2025-02-21
Launch site
AFETR
Launch vehicle
Mass (kg)
RCS (m²)

Purposes: comms

External: N2YO · Heavens-Above · Gunter

§ Orbital elements

Epoch: 2026-05-24T18:12:45.322560Z

Period
91.67 min
Inclination
42.9990°
Eccentricity
0.0003071
Mean motion
15.70809969 rev/d
Perigee alt
354.5 km
Apogee alt
358.6 km
Semi-major
6,734.7 km
B*
1.3782e-3
RAAN
276.9034°
Arg perigee
237.1374°
Mean anomaly
122.9198°
Rev number
7,318

§ Raw data

STARLINK-11403 [DTC]1 63060U 25035J   26144.75885790  .00180074  00000+0  13782-2 0  99982 63060  42.9990 276.9034 0003071 237.1374 122.9198 15.70809969 73184

JSON: /api/v1/satellites/63060 · /tle

For live sub-satellite position, see the globe view (requires WebGL).

§ Visibility from observer

Set your observer location to see the next 7 days of passes ≥ 10°. The values pass through the URL so the page stays shareable.

No JS? Fill the form by hand. The geolocation button needs JavaScript.